Wind_Speed
27 28 28 28 29 30 30 30 30 30 31 32 33 32 31 31 31 32 33 34 34 35 36 36 37 37 37 37 37 36 36 36 36 36 35 35 34 34 35 35 35 36 36 37
27 27 27 28 29 30 31 31 31 31 32 33 32 32 31 31 31 32 33 34 34 35 35 35 36 36 36 37 36 36 36 36 35 35 35 35 34 33 33 35 36 36 36 35
27 27 27 28 29 30 31 31 31 31 32 32 33 32 30 30 31 31 32 32 33 33 34 34 35 35 35 35 36 36 34 34 34 35 35 36 36 35 34 34 35 36 37 36
28 27 28 29 29 29 30 30 31 31 32 31 32 33 30 29 30 31 30 30 31 32 33 34 33 34 34 34 35 36 35 34 33 33 34 35 35 34 34 34 34 35 36 36
27 27 28 29 29 29 30 29 30 31 31 32 31 33 31 29 29 28 29 29 29 30 31 32 32 32 33 33 33 34 35 35 34 33 33 33 34 34 34 34 34 35 36 36
27 27 28 28 28 28 29 29 30 31 31 32 30 32 31 29 28 27 27 29 29 30 29 30 31 31 31 32 32 33 34 35 34 34 34 33 33 33 34 34 35 35 36 36
27 27 27 27 27 28 28 28 29 30 31 31 30 31 30 29 28 28 27 27 28 28 29 29 29 30 31 31 31 32 33 33 33 34 34 34 34 34 34 34 35 35 36 36
28 27 27 26 27 27 27 27 28 29 30 29 29 30 29 29 29 28 28 27 27 27 28 28 29 29 30 31 31 32 32 32 32 33 33 34 34 34 35 35 35 36 36 37
27 27 27 26 26 26 26 26 27 28 29 29 29 29 28 28 27 27 27 27 26 26 27 28 28 29 29 30 30 31 31 32 32 32 33 32 32 33 35 35 35 36 37 38
26 28 27 26 26 26 27 26 27 28 29 30 29 27 26 26 26 26 26 26 26 27 27 28 28 28 29 29 30 30 31 31 32 32 32 33 33 33 33 33 35 37 38 39
25 27 27 27 26 26 27 27 28 29 30 30 30 28 26 26 25 25 26 26 26 26 27 27 28 27 28 29 30 30 31 32 32 33 33 33 33 34 34 34 35 36 37 39
26 27 27 26 26 26 27 28 29 30 31 31 32 30 27 27 26 26 26 26 26 26 26 26 27 28 29 29 30 31 31 32 32 33 33 33 33 34 35 36 36 37 37 38
27 28 28 27 27 27 27 27 29 30 31 31 32 31 28 27 27 27 27 27 28 27 26 26 26 27 28 29 29 30 31 31 32 32 33 33 34 35 35 36 37 38 39 39
27 27 27 27 27 27 26 27 29 30 31 31 30 29 28 28 28 27 27 28 28 27 27 26 26 26 27 28 28 30 30 31 32 32 33 33 34 35 36 36 37 38 39 40
27 27 27 27 27 28 28 28 28 29 29 30 28 28 27 28 28 28 28 28 28 27 27 28 28 28 27 27 28 29 30 30 31 32 33 34 34 35 35 36 37 38 38 39
27 28 28 28 28 29 29 28 29 29 28 29 29 29 28 28 27 27 28 28 28 27 27 28 28 29 29 28 29 29 29 30 30 31 32 33 34 34 35 36 37 37 38 39
26 28 29 29 29 30 29 27 28 29 28 29 29 29 29 28 28 28 28 29 29 28 27 28 29 29 29 30 30 30 30 30 30 31 31 32 33 34 34 35 36 37 38 40
26 27 29 29 29 31 27 26 27 28 28 29 29 28 29 29 28 28 28 29 30 30 29 28 29 29 29 30 30 31 31 32 32 32 32 32 33 34 35 35 36 37 38 39
26 27 28 30 30 29 27 26 27 28 27 27 27 28 28 28 28 27 27 28 29 29 30 29 29 30 30 30 30 30 31 31 31 31 31 32 33 33 34 34 35 36 36 37
27 27 28 29 30 29 26 27 27 28 28 26 26 27 27 28 28 27 28 28 28 29 29 30 30 30 30 30 30 30 30 30 30 31 31 31 32 32 33 33 34 35 36 37
26 26 27 27 29 29 27 26 27 27 27 27 27 27 28 28 28 28 28 28 28 29 29 30 30 30 30 30 30 30 30 30 30 30 31 31 31 32 32 33 34 35 36 37
27 28 28 29 30 28 28 28 28 28 27 27 27 27 27 27 27 27 27 28 28 28 29 29 29 29 29 29 29 30 30 30 31 31 31 32 32 32 33 33 34 35 36 36
28 29 30 30 29 28 28 29 28 28 27 27 27 28 28 27 26 27 27 27 27 28 28 29 28 29 29 29 29 29 29 30 30 31 31 32 32 33 33 33 34 35 35 36
29 30 30 30 28 28 28 28 28 28 28 28 29 29 29 28 28 28 28 28 28 27 27 28 28 28 29 29 29 29 29 30 31 31 31 32 32 33 33 34 34 34 35 35
28 28 28 27 26 26 25 26 27 28 28 28 28 28 28 28 28 28 27 27 28 28 27 27 27 28 28 29 29 29 29 29 29 30 30 31 31 32 32 32 32 33 34 35
25 25 25 25 25 26 25 24 25 25 26 26 26 26 27 27 28 27 27 27 27 27 27 27 27 27 28 28 29 29 29 29 29 30 31 31 30 31 31 32 32 33 34 34
Wind_Direction
256 256 256 256 256 258 260 260 261 261 262 262 262 263 262 262 262 262 262 264 265 264 263 263 262 261 259 257 255 254 255 254 253 252 251 251 251 252 250 248 248 248 246 247
258 257 257 256 256 258 259 261 262 262 263 263 263 262 262 263 262 263 264 264 265 265 264 262 262 261 259 256 253 253 253 252 252 251 249 249 250 250 250 249 248 248 247 249
259 258 257 256 258 259 260 262 262 263 264 264 264 263 262 262 263 264 265 266 267 267 264 263 262 260 258 256 253 251 251 252 251 250 248 247 247 249 249 249 248 248 248 248
260 259 258 257 258 259 260 261 262 263 264 264 264 264 262 263 264 265 267 267 267 266 264 262 261 260 257 255 253 251 251 252 252 251 249 248 247 248 248 249 249 248 248 249
262 260 259 258 259 259 260 261 262 263 264 264 264 265 264 264 264 266 266 266 265 265 264 261 260 259 256 254 253 253 251 251 252 252 250 248 248 249 250 251 251 250 249 250
263 262 261 260 259 259 260 260 262 263 263 264 264 265 265 264 265 266 265 265 265 265 264 262 259 258 256 254 253 252 251 251 251 251 250 249 249 250 250 252 252 251 250 250
262 260 260 260 258 257 259 260 262 262 262 265 266 266 266 265 265 266 266 265 265 265 263 261 259 257 256 255 253 252 251 251 251 251 250 250 250 250 251 252 254 253 252 252
263 259 259 259 258 259 259 260 262 264 267 268 267 268 268 266 267 268 267 267 265 264 261 259 258 257 256 254 253 252 251 250 251 251 251 251 251 251 251 253 254 253 253 254
266 263 261 260 258 258 260 262 262 264 266 268 268 270 269 267 268 269 268 267 265 263 261 259 259 258 256 254 253 253 251 250 251 251 251 251 252 252 252 253 254 254 254 255
266 265 264 261 258 258 260 262 262 263 266 268 269 271 271 272 270 268 265 264 264 263 262 261 259 258 256 254 254 253 251 251 251 251 251 252 253 254 253 253 254 255 257 258
265 266 265 262 261 261 260 260 262 263 266 268 270 271 272 274 272 269 265 263 264 264 264 263 260 257 256 256 255 253 252 252 253 252 252 252 253 253 254 255 255 256 258 260
264 264 263 263 261 260 261 260 260 262 265 267 271 272 273 274 273 271 268 265 265 265 265 265 263 260 258 257 255 254 253 253 252 252 253 254 255 255 255 255 257 258 259 260
263 263 264 264 262 263 262 261 262 263 265 268 270 274 276 274 270 269 269 267 266 265 265 265 264 262 259 257 256 255 255 255 254 254 253 254 256 257 257 257 257 258 260 261
264 262 262 263 263 263 262 262 262 263 265 268 269 272 273 273 272 269 268 266 265 265 263 263 263 261 260 259 257 256 256 256 255 255 255 256 257 258 258 258 258 258 260 261
263 261 262 260 260 260 261 262 262 264 266 268 269 269 272 271 271 270 267 267 265 263 262 263 263 262 262 260 259 258 258 257 257 257 257 258 260 260 260 259 259 259 260 261
263 262 263 261 260 261 262 263 264 266 268 270 270 270 270 270 269 268 267 266 265 264 262 262 262 261 261 260 260 260 260 259 258 259 259 260 261 262 263 262 262 262 262 262
263 264 264 263 261 262 263 265 266 267 268 269 271 271 269 269 268 267 265 264 264 264 263 262 262 261 260 259 259 260 260 260 261 261 262 262 262 264 264 264 263 264 264 264
263 263 264 265 264 264 267 265 265 266 267 269 269 268 267 266 267 267 266 265 263 262 261 261 262 263 263 261 261 261 260 261 261 263 264 263 263 265 265 265 264 264 265 265
261 263 263 265 266 267 266 267 267 267 266 267 267 266 266 265 265 265 266 266 264 263 263 262 262 262 263 262 262 262 261 261 263 264 264 265 264 265 265 265 265 265 266 267
261 261 264 265 266 268 271 269 268 267 267 265 265 266 266 266 265 265 265 265 265 264 263 263 263 263 263 263 262 263 262 261 263 264 265 267 267 266 266 266 267 267 268 269
261 262 263 264 266 268 270 269 269 268 269 266 265 266 267 267 267 266 265 265 265 265 264 264 264 263 263 264 263 264 265 263 263 265 267 267 268 268 268 268 269 270 269 269
263 263 265 265 267 269 269 267 267 268 269 267 266 266 267 267 266 266 266 266 266 266 264 263 263 263 263 264 264 264 266 265 264 265 267 267 269 270 270 271 271 272 272 271
265 267 268 268 268 268 266 265 266 267 268 267 266 265 266 267 266 266 267 267 267 267 265 263 263 264 265 264 265 265 266 266 266 267 268 269 270 271 273 273 273 274 274 274
266 268 268 268 268 267 265 264 265 266 267 267 267 267 266 267 267 267 268 267 266 266 265 264 263 264 265 265 265 267 267 268 268 269 269 270 271 272 273 274 275 275 276 276
268 267 269 268 267 266 265 265 265 264 266 267 267 268 267 268 268 267 267 267 266 265 265 265 265 264 265 266 267 268 269 269 269 269 269 270 271 272 274 275 276 277 277 277
269 268 269 268 266 265 265 264 264 265 265 265 265 266 267 267 267 267 267 268 267 265 265 266 265 265 266 267 268 269 269 269 270 270 270 271 272 273 274 276 277 278 278 278
Height
5705 5707 5708 5710 5711 5712 5713 5714 5715 5716 5716 5716 5718 5719 5721 5720 5720 5721 5721 5721 5722 5722 5722 5722 5722 5723 5723 5724 5725 5726 5727 5728 5728 5729 5730 5732 5733 5734 5736 5738 5740 5742 5744 5747
5698 5699 5701 5701 5702 5703 5704 5705 5706 5707 5707 5707 5709 5710 5712 5711 5711 5712 5712 5712 5713 5713 5712 5712 5712 5712 5713 5714 5715 5716 5717 5718 5719 5721 5722 5723 5725 5726 5728 5729 5731 5734 5736 5739
5690 5692 5692 5693 5694 5695 5696 5697 5698 5698 5698 5698 5699 5701 5703 5703 5702 5703 5703 5703 5703 5703 5703 5702 5702 5702 5703 5704 5705 5707 5708 5709 5711 5712 5713 5714 5716 5718 5719 5721 5723 5726 5728 5731
5682 5684 5684 5685 5686 5687 5688 5689 5689 5689 5689 5690 5691 5691 5696 5695 5694 5694 5695 5694 5694 5694 5693 5693 5693 5693 5693 5695 5696 5697 5699 5700 5702 5703 5704 5706 5708 5710 5712 5714 5715 5718 5720 5723
5675 5675 5676 5677 5679 5679 5680 5680 5680 5680 5680 5681 5682 5681 5686 5686 5686 5687 5686 5685 5685 5684 5684 5684 5684 5684 5685 5686 5687 5688 5690 5692 5693 5695 5696 5698 5700 5702 5704 5705 5707 5710 5712 5715
5667 5667 5668 5669 5670 5671 5671 5672 5672 5671 5671 5672 5675 5674 5676 5678 5678 5678 5677 5677 5676 5675 5675 5675 5675 5675 5676 5677 5678 5679 5681 5683 5685 5686 5688 5690 5692 5693 5695 5697 5700 5702 5704 5706
5659 5660 5660 5661 5662 5663 5663 5664 5664 5663 5663 5665 5666 5665 5668 5669 5669 5669 5669 5668 5668 5667 5667 5667 5667 5667 5668 5668 5670 5671 5673 5674 5676 5678 5680 5682 5684 5686 5688 5690 5691 5694 5696 5698
5650 5652 5653 5653 5654 5655 5655 5656 5656 5656 5656 5657 5657 5656 5660 5660 5660 5660 5660 5660 5659 5659 5659 5659 5659 5659 5659 5660 5661 5662 5664 5666 5667 5669 5671 5673 5675 5677 5679 5681 5683 5685 5687 5689
5642 5644 5646 5646 5646 5647 5647 5648 5649 5648 5647 5647 5648 5650 5651 5652 5652 5652 5651 5651 5651 5651 5651 5651 5651 5651 5651 5652 5653 5654 5656 5657 5659 5661 5663 5665 5667 5669 5671 5673 5675 5677 5678 5680
5634 5635 5637 5638 5639 5639 5640 5640 5641 5640 5639 5639 5640 5642 5643 5643 5644 5644 5643 5643 5643 5643 5643 5643 5643 5643 5643 5644 5645 5646 5648 5649 5651 5653 5655 5657 5659 5661 5662 5664 5666 5668 5669 5671
5626 5627 5629 5630 5631 5632 5633 5633 5632 5632 5632 5632 5631 5636 5636 5636 5635 5635 5635 5635 5635 5635 5635 5635 5635 5635 5635 5636 5637 5638 5640 5641 5643 5645 5647 5649 5651 5652 5654 5655 5657 5658 5660 5661
5618 5618 5619 5622 5623 5623 5624 5624 5625 5625 5625 5624 5624 5629 5628 5628 5627 5627 5627 5627 5627 5627 5627 5627 5627 5627 5628 5629 5629 5631 5632 5633 5635 5637 5639 5640 5642 5643 5645 5646 5647 5648 5650 5650
5610 5610 5611 5613 5616 5616 5616 5617 5617 5617 5617 5616 5616 5621 5620 5620 5619 5619 5619 5619 5618 5619 5619 5619 5619 5619 5620 5621 5621 5622 5624 5625 5626 5628 5630 5631 5633 5634 5635 5636 5637 5638 5639 5640
5602 5602 5604 5606 5607 5607 5608 5609 5609 5608 5608 5608 5610 5611 5612 5611 5611 5611 5611 5610 5610 5611 5611 5611 5611 5611 5612 5612 5613 5614 5615 5616 5618 5619 5621 5622 5623 5624 5625 5626 5627 5628 5629 5630
5593 5594 5596 5597 5598 5599 5600 5600 5601 5600 5600 5600 5602 5602 5603 5602 5602 5602 5602 5602 5602 5602 5603 5603 5603 5604 5604 5605 5605 5606 5607 5608 5609 5610 5612 5612 5613 5614 5615 5616 5616 5617 5618 5619
5586 5586 5588 5589 5590 5590 5590 5592 5592 5592 5593 5592 5592 5593 5594 5593 5593 5593 5593 5593 5593 5594 5594 5594 5595 5595 5596 5596 5597 5598 5598 5599 5600 5601 5602 5603 5603 5604 5604 5605 5605 5606 5607 5607
5578 5579 5579 5580 5581 5580 5582 5585 5584 5584 5584 5584 5583 5585 5584 5584 5584 5584 5584 5584 5585 5585 5585 5585 5586 5586 5587 5587 5588 5589 5589 5590 5591 5592 5592 5593 5593 5593 5594 5594 5594 5595 5595 5595
5571 5571 5570 5571 5572 5572 5578 5576 5576 5575 5576 5575 5575 5575 5575 5575 5575 5575 5575 5575 5576 5576 5576 5576 5577 5577 5578 5578 5579 5580 5580 5581 5582 5582 5582 5582 5583 5583 5583 5583 5583 5584 5584 5584
5563 5563 5562 5562 5562 5563 5568 5568 5567 5566 5567 5567 5566 5566 5566 5566 5566 5567 5566 5566 5566 5567 5567 5568 5568 5569 5569 5569 5570 5570 5571 5572 5572 5572 5572 5572 5572 5572 5572 5573 5573 5573 5572 5572
5555 5555 5555 5554 5554 5555 5560 5559 5558 5558 5558 5559 5558 5557 5557 5557 5558 5559 5558 5558 5558 5558 5558 5559 5559 5560 5560 5560 5561 5561 5562 5562 5563 5563 5563 5562 5562 5562 5562 5562 5562 5562 5561 5561
5547 5547 5547 5546 5545 5547 5550 5549 5549 5550 5551 5550 5549 5549 5549 5549 5549 5550 5549 5549 5549 5549 5549 5550 5550 5550 5551 5551 5551 5552 5553 5553 5553 5553 5553 5553 5553 5553 5552 5552 5552 5551 5550 5550
5538 5538 5539 5538 5537 5542 5541 5540 5540 5540 5540 5540 5540 5540 5540 5540 5540 5540 5540 5540 5540 5540 5540 5540 5541 5541 5541 5542 5542 5543 5543 5543 5543 5543 5543 5543 5543 5543 5542 5542 5541 5540 5540 5539
5530 5531 5530 5530 5532 5532 5531 5531 5531 5531 5531 5531 5531 5531 5531 5531 5531 5531 5531 5531 5531 5531 5531 5531 5532 5532 5532 5533 5533 5534 5534 5534 5533 5534 5533 5533 5533 5532 5532 5531 5531 5530 5529 5528
5521 5521 5520 5520 5522 5522 5522 5522 5522 5522 5522 5522 5522 5522 5523 5522 5522 5522 5522 5522 5522 5522 5522 5522 5523 5523 5523 5524 5524 5524 5524 5524 5524 5524 5524 5523 5523 5522 5522 5521 5520 5519 5518 5517
5512 5511 5511 5511 5512 5512 5513 5513 5513 5513 5513 5513 5513 5513 5513 5513 5513 5513 5513 5513 5513 5513 5514 5514 5514 5514 5514 5515 5515 5515 5515 5514 5514 5514 5514 5513 5513 5512 5512 5511 5510 5509 5508 5506
5504 5504 5503 5503 5504 5504 5505 5505 5504 5504 5505 5504 5504 5504 5504 5504 5504 5504 5504 5504 5504 5504 5505 5505 5505 5505 5506 5506 5506 5505 5505 5505 5505 5504 5504 5503 5503 5502 5502 5501 5500 5498 5497 5495